{"data":{"norad_id":59191,"intl_designator":"2024-045P","name":"STARLINK-31551","alt_names":[],"object_type":"PAYLOAD","status":"ACTIVE","operator":null,"country":"US","launch_date":"2024-03-10","launch_site_code":"AFETR","launch_vehicle":null,"mission":null,"orbit_class":"UNKNOWN","rcs_meters":null,"size_class":null,"mass_kg":null,"dimensions":null,"purposes":["comms"],"wikipedia_slug":null,"has_3d_model":false,"image_url":null,"decayed_at":null,"tle_current":{"epoch":"2026-05-24T22:02:43.038816Z","epoch_age_seconds":75292,"freshness":"FRESH","line1":"1 59191U 24045P   26144.91855369 -.00000808  00000+0 -19832-4 0  9997","line2":"2 59191  43.0026  18.2604 0001322 247.9375 112.1336 15.27589993124864","mean_motion":15.27589993,"eccentricity":0.0001322,"inclination_deg":43.0026,"raan_deg":18.2604,"arg_perigee_deg":247.9375,"mean_anomaly_deg":112.1336,"bstar":-1.9832e-5,"rev_number":12486,"period_min":94.26613205105,"perigee_km":482.11212871967,"apogee_km":483.92621841196,"semimajor_km":6861.1561735658,"source":"CELESTRAK","updated_at":"2026-05-25T13:38:18.861552Z"}}}